Location: Absher
(46.5583°N, 107.9840°W)
Time: 09:15:46
(UTC+00:00)

STRAND 1 - Pass Details

Date: 06 April 2023
Orbit: 767 x 779 km, 98.4° (Epoch: 02 June)

Event Time Altitude Azimuth Distance (km) Brightness Sun altitude
Rises 02:16:13 0° 12° (NNE) 3,250 ? -5.8°
Reaches altitude 10° 02:18:32 10° 12° (NNE) 2,318 ? -6.2°
Maximum altitude 02:23:39 80° 287° (WNW) 786 ? -7.1°
Drops below altitude 10° 02:28:43 10° 200° (SSW) 2,302 ? -7.9°
Sets 02:31:01 0° 200° (SSW) 3,225 ? -8.3°
